Terminal Aerodrome Forecast
Issued by NWS

Home | Current Version | Previous Version | Text Only | Print | Product List | Glossary On
Versions: 1 2 3 4 5 6 7 8 9 10 11 12 13 14 15 16 17 18 19 20 21 22 23 24 25 26 27 28 29 30 31 32 33 34 35 36 37
000
FTUS45 KGJT 202326
TAFEGE
TAF
KEGE 202326Z 2100/2124 23008G15KT P6SM VCTS SCT050CB BKN110
     FM210200 23005KT P6SM SCT070 BKN110
     FM210500 11003KT P6SM SCT110
     FM211200 VRB03KT P6SM SCT120
     FM211800 23005KT P6SM BKN200
      AMD LTD TO CLD VIS AND WIND 2101/2113=

USA.gov is the U.S. government's official web portal to all federal, state and local government web resources and services.